Location: Colorado Springs
(38.8340°N, 104.8210°W)
Time: 20:14:11
(UTC-07:00)

OTV 5 (USA 277) - Pass Details

Date: 07 October 2017
Orbit: 404 x 417 km, 43.0° (Epoch: 07 September)

Event Time Altitude Azimuth Distance (km) Brightness Sun altitude
Rises 20:10:10 0° 222° (SW) 2,342 ? -19.9°
Reaches altitude 10° 20:12:24 10° 212° (SSW) 1,482 ? -20.3°
Enters shadow 20:13:58 21° 192° (SSW) 978 ? -20.6°
